| time (UTC) | temp F | wind direction | speed MPH | gust MPH | rain 1hr in | rain 24hr in | rain mn in | humidity % | barometer mb |
| 20260506192405 | 64 | 186 | 3.0 | 12.0 | 0.01 | 0.29 | 0.25 | 88 | 1007.7 |
| 20260506191904 | 63 | 221 | 2.0 | 8.0 | 0.01 | 0.29 | 0.25 | 88 | 1007.8 |
| 20260506191404 | 63 | 198 | 3.0 | 8.0 | 0.01 | 0.29 | 0.25 | 88 | 1007.9 |
| 20260506190905 | 63 | 168 | 4.0 | 8.0 | 0.01 | 0.29 | 0.25 | 88 | 1007.9 |
| 20260506190404 | 63 | 218 | 3.0 | 8.0 | 0.01 | 0.29 | 0.25 | 88 | 1007.9 |
| 20260506185904 | 63 | 192 | 3.0 | 8.0 | 0.00 | 0.29 | 0.24 | 89 | 1007.9 |
| 20260506185405 | 63 | 256 | 5.0 | 8.0 | 0.00 | 0.29 | 0.24 | 90 | 1007.9 |
| 20260506184405 | 63 | 199 | 3.0 | 8.0 | 0.00 | 0.29 | 0.24 | 91 | 1008.0 |
| 20260506183905 | 63 | 220 | 2.0 | 7.0 | 0.00 | 0.29 | 0.24 | 91 | 1008.0 |
| 20260506183404 | 63 | 257 | 3.0 | 8.0 | 0.00 | 0.29 | 0.24 | 90 | 1008.1 |
| 20260506182905 | 63 | 216 | 3.0 | 10.0 | 0.00 | 0.29 | 0.24 | 88 | 1008.1 |
| 20260506182404 | 63 | 199 | 3.0 | 10.0 | 0.01 | 0.29 | 0.25 | 88 | 1008.0 |
| 20260506181904 | 63 | 254 | 5.0 | 9.0 | 0.01 | 0.29 | 0.25 | 88 | 1008.0 |
| 20260506181404 | 63 | 218 | 3.0 | 9.0 | 0.01 | 0.29 | 0.25 | 89 | 1008.0 |
| 20260506180904 | 63 | 186 | 3.0 | 9.0 | 0.01 | 0.29 | 0.25 | 89 | 1008.1 |
| 20260506175905 | 63 | 193 | 4.0 | 8.0 | 0.03 | 0.29 | 0.26 | 89 | 1008.2 |
| 20260506175405 | 63 | 226 | 3.0 | 8.0 | 0.03 | 0.29 | 0.26 | 90 | 1008.4 |
| 20260506174904 | 63 | 239 | 2.0 | 6.0 | 0.04 | 0.29 | 0.26 | 91 | 1008.4 |
| 20260506174404 | 63 | 193 | 3.0 | 7.0 | 0.04 | 0.29 | 0.26 | 90 | 1008.3 |
| 20260506173904 | 63 | 235 | 5.0 | 9.0 | 0.04 | 0.29 | 0.26 | 90 | 1008.3 |
| 20260506173404 | 63 | 195 | 3.0 | 12.0 | 0.05 | 0.28 | 0.25 | 90 | 1008.5 |
| 20260506172904 | 62 | 201 | 5.0 | 9.0 | 0.06 | 0.28 | 0.25 | 91 | 1008.5 |
| 20260506172404 | 62 | 208 | 3.0 | 8.0 | 0.07 | 0.28 | 0.25 | 92 | 1008.6 |
| 20260506171404 | 63 | 202 | 3.0 | 9.0 | 0.07 | 0.27 | 0.24 | 92 | 1008.5 |
| 20260506170904 | 63 | 250 | 3.0 | 10.0 | 0.08 | 0.27 | 0.24 | 93 | 1008.4 |
| 20260506170404 | 63 | 216 | 4.0 | 10.0 | 0.08 | 0.25 | 0.22 | 93 | 1008.3 |
| 20260506165404 | 63 | 241 | 2.0 | 9.0 | 0.09 | 0.25 | 0.22 | 94 | 1008.4 |
| 20260506163405 | 62 | 197 | 3.0 | 8.0 | 0.10 | 0.23 | 0.20 | 95 | 1008.4 |
| 20260506162904 | 62 | 180 | 2.0 | 7.0 | 0.11 | 0.23 | 0.20 | 94 | 1008.7 |
| 20260506162404 | 62 | 207 | 1.0 | 7.0 | 0.12 | 0.21 | 0.18 | 95 | 1009.1 |
| 20260506161908 | 62 | 207 | 2.0 | 6.0 | 0.13 | 0.20 | 0.18 | 94 | 1009.3 |
| 20260506161404 | 62 | 222 | 3.0 | 8.0 | 0.14 | 0.20 | 0.17 | 94 | 1009.4 |
| 20260506160903 | 62 | 220 | 2.0 | 6.0 | 0.13 | 0.18 | 0.16 | 94 | 1009.6 |
| 20260506160405 | 62 | 162 | 3.0 | 7.0 | 0.13 | 0.17 | 0.15 | 94 | 1009.7 |
| 20260506155404 | 62 | 184 | 1.0 | 5.0 | 0.12 | 0.15 | 0.14 | 93 | 1009.8 |
| 20260506154405 | 62 | 216 | 2.0 | 7.0 | 0.11 | 0.13 | 0.12 | 90 | 1009.8 |
| 20260506153905 | 63 | 204 | 2.0 | 7.0 | 0.11 | 0.12 | 0.11 | 89 | 1009.7 |
| 20260506153403 | 63 | 220 | 3.0 | 8.0 | 0.10 | 0.10 | 0.10 | 87 | 1009.9 |
| 20260506152405 | 64 | 177 | 3.0 | 9.0 | 0.06 | 0.06 | 0.06 | 84 | 1009.8 |
| 20260506151904 | 64 | 254 | 3.0 | 7.0 | 0.05 | 0.05 | 0.05 | 81 | 1009.8 |
| 20260506150904 | 65 | 215 | 2.0 | 8.0 | 0.03 | 0.03 | 0.03 | 81 | 1009.5 |
| 20260506150403 | 65 | 209 | 5.0 | 8.0 | 0.02 | 0.02 | 0.02 | 80 | 1009.5 |
| 20260506145904 | 65 | 206 | 3.0 | 8.0 | 0.02 | 0.02 | 0.02 | 80 | 1009.6 |
| 20260506145403 | 65 | 231 | 2.0 | 6.0 | 0.02 | 0.02 | 0.02 | 80 | 1009.5 |
| 20260506144904 | 66 | 212 | 3.0 | 7.0 | 0.01 | 0.01 | 0.01 | 78 | 1009.7 |
| 20260506144404 | 66 | 224 | 3.0 | 8.0 | 0.01 | 0.01 | 0.01 | 76 | 1009.8 |
| 20260506143404 | 67 | 225 | 3.0 | 9.0 | 0.00 | 0.00 | 0.00 | 72 | 1009.8 |
| 20260506142906 | 67 | 241 | 2.0 | 10.0 | 0.00 | 0.00 | 0.00 | 71 | 1009.8 |
| 20260506142404 | 67 | 230 | 3.0 | 8.0 | 0.00 | 0.00 | 0.00 | 71 | 1009.8 |
| 20260506141903 | 67 | 240 | 5.0 | 8.0 | 0.00 | 0.00 | 0.00 | 71 | 1009.8 |
| 20260506141405 | 67 | 189 | 5.0 | 13.0 | 0.00 | 0.00 | 0.00 | 70 | 1009.7 |
| 20260506140904 | 68 | 204 | 4.0 | 13.0 | 0.00 | 0.00 | 0.00 | 70 | 1009.7 |
| 20260506140404 | 68 | 196 | 5.0 | 13.0 | 0.00 | 0.00 | 0.00 | 70 | 1009.5 |
| 20260506135904 | 68 | 181 | 5.0 | 9.0 | 0.00 | 0.00 | 0.00 | 70 | 1009.4 |
| 20260506135404 | 67 | 225 | 2.0 | 7.0 | 0.00 | 0.00 | 0.00 | 71 | 1009.4 |
| 20260506134904 | 67 | 223 | 4.0 | 13.0 | 0.00 | 0.00 | 0.00 | 72 | 1009.6 |
| 20260506134405 | 67 | 211 | 3.0 | 12.0 | 0.00 | 0.00 | 0.00 | 72 | 1009.6 |
| 20260506133904 | 67 | 274 | 3.0 | 7.0 | 0.00 | 0.00 | 0.00 | 72 | 1009.6 |
| 20260506133405 | 67 | 196 | 4.0 | 9.0 | 0.00 | 0.00 | 0.00 | 73 | 1009.6 |
| 20260506132904 | 67 | 193 | 5.0 | 9.0 | 0.00 | 0.00 | 0.00 | 72 | 1009.7 |
| 20260506132403 | 67 | 224 | 3.0 | 8.0 | 0.00 | 0.00 | 0.00 | 73 | 1009.6 |
| 20260506131905 | 67 | 203 | 3.0 | 10.0 | 0.00 | 0.00 | 0.00 | 73 | 1009.7 |
| 20260506131403 | 67 | 188 | 4.0 | 10.0 | 0.00 | 0.00 | 0.00 | 73 | 1009.7 |
| 20260506130404 | 67 | 223 | 4.0 | 8.0 | 0.00 | 0.00 | 0.00 | 73 | 1009.9 |
| 20260506125904 | 67 | 185 | 5.0 | 10.0 | 0.00 | 0.00 | 0.00 | 73 | 1009.8 |
| 20260506125403 | 67 | 203 | 5.0 | 10.0 | 0.00 | 0.00 | 0.00 | 72 | 1009.8 |
| 20260506124905 | 66 | 208 | 3.0 | 12.0 | 0.00 | 0.00 | 0.00 | 73 | 1009.7 |
| 20260506124403 | 66 | 195 | 4.0 | 12.0 | 0.00 | 0.00 | 0.00 | 74 | 1009.7 |
| 20260506123904 | 66 | 203 | 5.0 | 8.0 | 0.00 | 0.00 | 0.00 | 74 | 1009.9 |
| 20260506123403 | 65 | 227 | 3.0 | 8.0 | 0.00 | 0.00 | 0.00 | 75 | 1009.8 |
| 20260506122908 | 65 | 198 | 5.0 | 9.0 | 0.00 | 0.00 | 0.00 | 75 | 1009.7 |
| 20260506122404 | 65 | 213 | 3.0 | 10.0 | 0.00 | 0.00 | 0.00 | 75 | 1009.6 |
| 20260506121903 | 65 | 178 | 1.0 | 10.0 | 0.00 | 0.00 | 0.00 | 75 | 1009.6 |
| 20260506121404 | 65 | 205 | 5.0 | 8.0 | 0.00 | 0.00 | 0.00 | 76 | 1009.6 |
| 20260506120903 | 65 | 187 | 4.0 | 12.0 | 0.00 | 0.00 | 0.00 | 76 | 1009.7 |
| 20260506120405 | 65 | 193 | 3.0 | 12.0 | 0.00 | 0.00 | 0.00 | 76 | 1009.7 |
| 20260506115905 | 65 | 204 | 3.0 | 10.0 | 0.00 | 0.00 | 0.00 | 76 | 1009.8 |
| 20260506115404 | 65 | 207 | 3.0 | 8.0 | 0.00 | 0.00 | 0.00 | 77 | 1009.7 |
| 20260506114904 | 65 | 215 | 3.0 | 8.0 | 0.00 | 0.00 | 0.00 | 77 | 1009.7 |
| 20260506114405 | 65 | 174 | 3.0 | 13.0 | 0.00 | 0.00 | 0.00 | 77 | 1009.7 |
| 20260506113904 | 65 | 172 | 5.0 | 10.0 | 0.00 | 0.00 | 0.00 | 77 | 1009.7 |
| 20260506113404 | 65 | 183 | 3.0 | 8.0 | 0.00 | 0.00 | 0.00 | 77 | 1009.6 |
| 20260506112905 | 65 | 174 | 3.0 | 8.0 | 0.00 | 0.00 | 0.00 | 77 | 1009.8 |
| 20260506110903 | 65 | 195 | 5.0 | 12.0 | 0.00 | 0.00 | 0.00 | 77 | 1009.7 |
| 20260506105904 | 65 | 186 | 5.0 | 10.0 | 0.00 | 0.00 | 0.00 | 78 | 1009.8 |
| 20260506104903 | 65 | 180 | 3.0 | 12.0 | 0.00 | 0.00 | 0.00 | 78 | 1009.7 |
| 20260506104404 | 65 | 190 | 3.0 | 10.0 | 0.00 | 0.00 | 0.00 | 78 | 1009.6 |
| 20260506103903 | 64 | 163 | 4.0 | 8.0 | 0.00 | 0.00 | 0.00 | 78 | 1009.5 |
| 20260506103405 | 64 | 182 | 6.0 | 13.0 | 0.00 | 0.00 | 0.00 | 78 | 1009.5 |
| 20260506102905 | 64 | 196 | 3.0 | 8.0 | 0.00 | 0.00 | 0.00 | 78 | 1009.5 |
| 20260506102405 | 64 | 178 | 5.0 | 13.0 | 0.00 | 0.00 | 0.00 | 78 | 1009.4 |
| 20260506101905 | 64 | 185 | 3.0 | 10.0 | 0.00 | 0.00 | 0.00 | 79 | 1009.4 |
| 20260506101404 | 64 | 192 | 3.0 | 10.0 | 0.00 | 0.00 | 0.00 | 79 | 1009.4 |
| 20260506100903 | 64 | 178 | 4.0 | 10.0 | 0.00 | 0.00 | 0.00 | 78 | 1009.5 |
| 20260506100404 | 64 | 181 | 2.0 | 10.0 | 0.00 | 0.00 | 0.00 | 79 | 1009.5 |
| 20260506095904 | 64 | 175 | 6.0 | 10.0 | 0.00 | 0.00 | 0.00 | 79 | 1009.6 |
| 20260506095404 | 64 | 173 | 4.0 | 10.0 | 0.00 | 0.00 | 0.00 | 79 | 1009.5 |
| 20260506094404 | 65 | 179 | 3.0 | 10.0 | 0.00 | 0.00 | 0.00 | 78 | 1009.3 |
| 20260506093905 | 65 | 190 | 3.0 | 8.0 | 0.00 | 0.00 | 0.00 | 78 | 1009.3 |
| 20260506093405 | 65 | 158 | 4.0 | 12.0 | 0.00 | 0.00 | 0.00 | 78 | 1009.3 |
| 20260506092904 | 65 | 177 | 5.0 | 12.0 | 0.00 | 0.00 | 0.00 | 78 | 1009.3 |
| 20260506092403 | 65 | 192 | 3.0 | 7.0 | 0.00 | 0.00 | 0.00 | 78 | 1009.4 |
| 20260506091904 | 65 | 220 | 2.0 | 8.0 | 0.00 | 0.00 | 0.00 | 78 | 1009.4 |
| 20260506090904 | 65 | 173 | 3.0 | 9.0 | 0.00 | 0.00 | 0.00 | 78 | 1009.4 |
| 20260506090403 | 65 | 179 | 3.0 | 10.0 | 0.00 | 0.00 | 0.00 | 78 | 1009.5 |
| 20260506085903 | 65 | 179 | 3.0 | 7.0 | 0.00 | 0.00 | 0.00 | 78 | 1009.6 |
| 20260506085404 | 65 | 214 | 3.0 | 8.0 | 0.00 | 0.00 | 0.00 | 78 | 1009.6 |
| 20260506084903 | 65 | 189 | 2.0 | 6.0 | 0.00 | 0.00 | 0.00 | 78 | 1009.6 |
| 20260506084403 | 65 | 174 | 3.0 | 7.0 | 0.00 | 0.00 | 0.00 | 78 | 1009.5 |
| 20260506083909 | 65 | 183 | 5.0 | 10.0 | 0.00 | 0.00 | 0.00 | 78 | 1009.6 |
| 20260506083405 | 65 | 183 | 2.0 | 6.0 | 0.00 | 0.00 | 0.00 | 78 | 1009.6 |
| 20260506082905 | 65 | 192 | 3.0 | 9.0 | 0.00 | 0.00 | 0.00 | 78 | 1009.6 |
| 20260506081906 | 65 | 196 | 3.0 | 9.0 | 0.00 | 0.00 | 0.00 | 78 | 1009.6 |
| 20260506081405 | 65 | 188 | 5.0 | 9.0 | 0.00 | 0.00 | 0.00 | 78 | 1009.6 |
| 20260506080906 | 65 | 182 | 2.0 | 8.0 | 0.00 | 0.00 | 0.00 | 78 | 1009.7 |
| 20260506080407 | 65 | 185 | 3.0 | 8.0 | 0.00 | 0.00 | 0.00 | 78 | 1009.7 |
| 20260506073405 | 66 | 243 | 3.0 | 9.0 | 0.00 | 0.00 | 0.00 | 76 | 1009.7 |
| 20260506072906 | 66 | 176 | 3.0 | 8.0 | 0.00 | 0.00 | 0.00 | 76 | 1009.7 |
| 20260506071405 | 66 | 181 | 5.0 | 9.0 | 0.00 | 0.00 | 0.00 | 76 | 1009.8 |
| 20260506070906 | 66 | 189 | 3.0 | 9.0 | 0.00 | 0.00 | 0.00 | 76 | 1009.8 |
| 20260506070406 | 66 | 187 | 3.0 | 8.0 | 0.00 | 0.00 | 0.00 | 76 | 1009.8 |
| 20260506062405 | 67 | 184 | 3.0 | 10.0 | 0.00 | 0.00 | 0.00 | 74 | 1009.9 |
| 20260506061905 | 67 | 208 | 3.0 | 8.0 | 0.00 | 0.00 | 0.00 | 73 | 1009.9 |
| 20260506061405 | 67 | 234 | 3.0 | 9.0 | 0.00 | 0.00 | 0.00 | 73 | 1009.8 |
| 20260506060405 | 67 | 190 | 3.0 | 10.0 | 0.00 | 0.00 | 0.00 | 72 | 1009.9 |
| 20260506051408 | 68 | 183 | 1.0 | 6.0 | 0.00 | 0.00 | 0.00 | 70 | 1010.3 |
| 20260506050905 | 68 | 194 | 2.0 | 8.0 | 0.00 | 0.00 | 0.00 | 70 | 1010.4 |
| 20260506050405 | 68 | 176 | 3.0 | 7.0 | 0.00 | 0.00 | 0.00 | 69 | 1010.4 |
| 20260506044905 | 68 | 177 | 4.0 | 9.0 | 0.00 | 0.00 | 0.00 | 68 | 1010.6 |
| 20260506044406 | 68 | 236 | 3.0 | 7.0 | 0.00 | 0.00 | 0.00 | 68 | 1010.6 |
| 20260506043905 | 68 | 235 | 2.0 | 6.0 | 0.00 | 0.00 | 0.00 | 68 | 1010.6 |
| 20260506043405 | 68 | 170 | 3.0 | 8.0 | 0.00 | 0.00 | 0.00 | 67 | 1010.6 |
| 20260506042907 | 68 | 181 | 3.0 | 8.0 | 0.00 | 0.00 | 0.00 | 67 | 1010.6 |
| 20260506041905 | 68 | 172 | 1.0 | 7.0 | 0.00 | 0.00 | 0.00 | 66 | 1010.5 |
| 20260506041405 | 69 | 167 | 3.0 | 9.0 | 0.00 | 0.00 | 0.00 | 66 | 1010.5 |
| 20260506040904 | 69 | 174 | 2.0 | 7.0 | 0.00 | 0.00 | 0.00 | 65 | 1010.5 |
| 20260506040405 | 69 | 184 | 2.0 | 8.0 | 0.00 | 0.00 | 0.00 | 65 | 1010.5 |
| 20260506035905 | 69 | 180 | 3.0 | 8.0 | 0.00 | 0.00 | 0.00 | 64 | 1010.4 |
| 20260506035405 | 69 | 172 | 2.0 | 9.0 | 0.00 | 0.00 | 0.00 | 64 | 1010.4 |
| 20260506034905 | 69 | 181 | 3.0 | 10.0 | 0.00 | 0.00 | 0.00 | 64 | 1010.3 |
| 20260506034405 | 69 | 174 | 3.0 | 10.0 | 0.00 | 0.00 | 0.00 | 63 | 1010.3 |
| 20260506033904 | 69 | 198 | 2.0 | 8.0 | 0.00 | 0.00 | 0.00 | 63 | 1010.3 |
| 20260506033405 | 70 | 200 | 4.0 | 10.0 | 0.00 | 0.00 | 0.00 | 62 | 1010.3 |
| 20260506032905 | 70 | 151 | 3.0 | 9.0 | 0.00 | 0.00 | 0.00 | 63 | 1010.2 |
| 20260506032406 | 70 | 168 | 2.0 | 7.0 | 0.00 | 0.00 | 0.00 | 62 | 1010.3 |
| 20260506031905 | 70 | 177 | 3.0 | 12.0 | 0.00 | 0.00 | 0.00 | 62 | 1010.3 |
| 20260506031405 | 70 | 195 | 4.0 | 9.0 | 0.00 | 0.00 | 0.00 | 62 | 1010.3 |
| 20260506030905 | 70 | 188 | 4.0 | 13.0 | 0.00 | 0.00 | 0.00 | 62 | 1010.2 |
| 20260506030405 | 70 | 189 | 3.0 | 12.0 | 0.00 | 0.00 | 0.00 | 62 | 1010.4 |
| 20260506025905 | 70 | 188 | 5.0 | 9.0 | 0.00 | 0.00 | 0.00 | 61 | 1010.4 |
| 20260506025405 | 70 | 192 | 3.0 | 9.0 | 0.00 | 0.00 | 0.00 | 62 | 1010.4 |
| 20260506024905 | 70 | 202 | 3.0 | 8.0 | 0.00 | 0.00 | 0.00 | 61 | 1010.4 |
| 20260506024405 | 70 | 177 | 3.0 | 8.0 | 0.00 | 0.00 | 0.00 | 62 | 1010.5 |
| 20260506022905 | 70 | 170 | 2.0 | 8.0 | 0.00 | 0.00 | 0.00 | 61 | 1010.5 |
| 20260506022405 | 70 | 186 | 4.0 | 8.0 | 0.00 | 0.00 | 0.00 | 61 | 1010.4 |
| 20260506021405 | 70 | 204 | 3.0 | 8.0 | 0.00 | 0.00 | 0.00 | 61 | 1010.4 |
| 20260506020905 | 71 | 174 | 1.0 | 10.0 | 0.00 | 0.00 | 0.00 | 60 | 1010.5 |
| 20260506020406 | 71 | 182 | 2.0 | 10.0 | 0.00 | 0.00 | 0.00 | 60 | 1010.4 |
| 20260506015905 | 71 | 167 | 4.0 | 8.0 | 0.00 | 0.00 | 0.00 | 59 | 1010.4 |
| 20260506015405 | 71 | 191 | 5.0 | 10.0 | 0.00 | 0.00 | 0.00 | 58 | 1010.5 |
| 20260506014905 | 72 | 187 | 3.0 | 7.0 | 0.00 | 0.00 | 0.00 | 58 | 1010.4 |
| 20260506014404 | 72 | 207 | 4.0 | 8.0 | 0.00 | 0.00 | 0.00 | 56 | 1010.3 |
| 20260506013904 | 72 | 175 | 4.0 | 8.0 | 0.00 | 0.00 | 0.00 | 55 | 1010.3 |
| 20260506013405 | 73 | 187 | 2.0 | 7.0 | 0.00 | 0.00 | 0.00 | 54 | 1010.2 |
| 20260506012904 | 73 | 188 | 3.0 | 7.0 | 0.00 | 0.00 | 0.00 | 53 | 1010.1 |
| 20260506012406 | 73 | 179 | 3.0 | 7.0 | 0.00 | 0.00 | 0.00 | 52 | 1010.1 |
| 20260506011905 | 74 | 169 | 4.0 | 10.0 | 0.00 | 0.00 | 0.00 | 51 | 1010.0 |
| 20260506011406 | 74 | 175 | 2.0 | 8.0 | 0.00 | 0.00 | 0.00 | 50 | 1010.0 |
| 20260506010905 | 74 | 174 | 3.0 | 8.0 | 0.00 | 0.00 | 0.00 | 49 | 1009.9 |
| 20260506010404 | 75 | 178 | 3.0 | 9.0 | 0.00 | 0.00 | 0.00 | 48 | 1009.8 |
| 20260506005905 | 75 | 175 | 3.0 | 9.0 | 0.00 | 0.00 | 0.00 | 48 | 1009.8 |
| 20260506005406 | 75 | 184 | 4.0 | 12.0 | 0.00 | 0.00 | 0.00 | 46 | 1009.8 |
| 20260506004905 | 76 | 183 | 5.0 | 12.0 | 0.00 | 0.00 | 0.00 | 46 | 1009.7 |
| 20260506004404 | 76 | 179 | 1.0 | 6.0 | 0.00 | 0.00 | 0.00 | 46 | 1009.7 |
| 20260506003905 | 76 | 199 | 2.0 | 8.0 | 0.00 | 0.00 | 0.00 | 45 | 1009.6 |
| 20260506002405 | 76 | 179 | 3.0 | 10.0 | 0.00 | 0.00 | 0.00 | 44 | 1009.4 |
| 20260506001905 | 76 | 201 | 5.0 | 10.0 | 0.00 | 0.00 | 0.00 | 44 | 1009.4 |
| 20260506001406 | 76 | 197 | 5.0 | 12.0 | 0.00 | 0.00 | 0.00 | 44 | 1009.3 |
| 20260506000904 | 77 | 187 | 5.0 | 9.0 | 0.00 | 0.00 | 0.00 | 44 | 1009.3 |
| 20260506000404 | 77 | 202 | 3.0 | 12.0 | 0.00 | 0.00 | 0.00 | 44 | 1009.3 |
| 20260505235406 | 77 | 219 | 5.0 | 12.0 | 0.00 | 0.00 | 0.00 | 45 | 1009.1 |
| 20260505234904 | 77 | 208 | 2.0 | 8.0 | 0.00 | 0.00 | 0.00 | 45 | 1009.1 |
| 20260505234405 | 77 | 190 | 5.0 | 12.0 | 0.00 | 0.00 | 0.00 | 45 | 1009.1 |
| 20260505233905 | 77 | 183 | 4.0 | 10.0 | 0.00 | 0.00 | 0.00 | 45 | 1009.1 |
| 20260505233405 | 77 | 212 | 3.0 | 12.0 | 0.00 | 0.00 | 0.00 | 45 | 1009.1 |
| 20260505232904 | 77 | 210 | 2.0 | 12.0 | 0.00 | 0.00 | 0.00 | 45 | 1009.1 |
| 20260505232406 | 78 | 214 | 5.0 | 9.0 | 0.00 | 0.00 | 0.00 | 44 | 1009.0 |
| 20260505231904 | 78 | 205 | 4.0 | 12.0 | 0.00 | 0.00 | 0.00 | 44 | 1008.9 |
| 20260505231404 | 78 | 216 | 5.0 | 13.0 | 0.00 | 0.00 | 0.00 | 44 | 1008.9 |
| 20260505230904 | 78 | 186 | 4.0 | 9.0 | 0.00 | 0.00 | 0.00 | 44 | 1008.9 |
| 20260505230406 | 79 | 226 | 5.0 | 12.0 | 0.00 | 0.00 | 0.00 | 43 | 1008.8 |
| 20260505225906 | 79 | 225 | 2.0 | 10.0 | 0.00 | 0.00 | 0.00 | 43 | 1008.9 |
| 20260505225406 | 79 | 273 | 5.0 | 9.0 | 0.00 | 0.00 | 0.00 | 42 | 1008.8 |
| 20260505224904 | 80 | 203 | 5.0 | 15.0 | 0.00 | 0.00 | 0.00 | 40 | 1008.8 |
| 20260505224405 | 80 | 217 | 4.0 | 12.0 | 0.00 | 0.00 | 0.00 | 39 | 1008.7 |
| 20260505223904 | 80 | 215 | 5.0 | 14.0 | 0.00 | 0.00 | 0.00 | 39 | 1008.7 |
| 20260505223404 | 81 | 221 | 5.0 | 10.0 | 0.00 | 0.00 | 0.00 | 39 | 1008.6 |
| 20260505222904 | 81 | 184 | 6.0 | 9.0 | 0.00 | 0.00 | 0.00 | 38 | 1008.5 |
| 20260505222404 | 81 | 181 | 4.0 | 12.0 | 0.00 | 0.00 | 0.00 | 38 | 1008.4 |
| 20260505221906 | 81 | 209 | 4.0 | 9.0 | 0.00 | 0.00 | 0.00 | 38 | 1008.5 |
| 20260505221404 | 81 | 220 | 3.0 | 8.0 | 0.00 | 0.00 | 0.00 | 38 | 1008.5 |
| 20260505220905 | 81 | 199 | 3.0 | 9.0 | 0.00 | 0.00 | 0.00 | 38 | 1008.4 |
| 20260505220404 | 81 | 180 | 4.0 | 10.0 | 0.00 | 0.00 | 0.00 | 38 | 1008.5 |
| 20260505215905 | 81 | 201 | 5.0 | 13.0 | 0.00 | 0.00 | 0.00 | 37 | 1008.6 |
| 20260505215405 | 81 | 224 | 4.0 | 10.0 | 0.00 | 0.00 | 0.00 | 37 | 1008.4 |
| 20260505214907 | 82 | 218 | 4.0 | 10.0 | 0.00 | 0.00 | 0.00 | 36 | 1008.4 |
| 20260505214405 | 81 | 171 | 4.0 | 9.0 | 0.00 | 0.00 | 0.00 | 36 | 1008.3 |
| 20260505213405 | 81 | 214 | 5.0 | 10.0 | 0.00 | 0.00 | 0.00 | 36 | 1008.5 |
| 20260505212905 | 81 | 193 | 5.0 | 13.0 | 0.00 | 0.00 | 0.00 | 36 | 1008.4 |
| 20260505212404 | 81 | 222 | 5.0 | 12.0 | 0.00 | 0.00 | 0.00 | 36 | 1008.3 |
| 20260505211904 | 82 | 212 | 5.0 | 9.0 | 0.00 | 0.00 | 0.00 | 36 | 1008.4 |
| 20260505211405 | 82 | 180 | 5.0 | 13.0 | 0.00 | 0.00 | 0.00 | 35 | 1008.5 |
| 20260505210904 | 82 | 248 | 4.0 | 10.0 | 0.00 | 0.00 | 0.00 | 35 | 1008.4 |
| 20260505210404 | 82 | 212 | 5.0 | 10.0 | 0.00 | 0.00 | 0.00 | 35 | 1008.3 |
| 20260505205904 | 82 | 194 | 4.0 | 15.0 | 0.00 | 0.00 | 0.00 | 34 | 1008.4 |
| 20260505205404 | 82 | 208 | 3.0 | 8.0 | 0.00 | 0.00 | 0.00 | 35 | 1008.3 |
| 20260505204905 | 82 | 222 | 4.0 | 13.0 | 0.00 | 0.00 | 0.00 | 34 | 1008.3 |
| 20260505204405 | 82 | 226 | 5.0 | 13.0 | 0.00 | 0.00 | 0.00 | 34 | 1008.3 |
| 20260505203905 | 82 | 262 | 3.0 | 9.0 | 0.00 | 0.00 | 0.00 | 34 | 1008.2 |
| 20260505203404 | 82 | 228 | 5.0 | 12.0 | 0.00 | 0.00 | 0.00 | 34 | 1008.2 |
| 20260505202904 | 82 | 183 | 5.0 | 9.0 | 0.00 | 0.00 | 0.00 | 35 | 1008.1 |
| 20260505202404 | 82 | 234 | 4.0 | 9.0 | 0.00 | 0.00 | 0.00 | 35 | 1008.2 |
| 20260505201904 | 82 | 211 | 5.0 | 10.0 | 0.00 | 0.00 | 0.00 | 36 | 1008.3 |
| 20260505200905 | 82 | 257 | 4.0 | 13.0 | 0.00 | 0.00 | 0.00 | 35 | 1008.3 |
| 20260505200406 | 83 | 180 | 5.0 | 14.0 | 0.00 | 0.00 | 0.00 | 35 | 1008.3 |
| 20260505195405 | 82 | 171 | 4.0 | 8.0 | 0.00 | 0.00 | 0.00 | 36 | 1008.3 |
| 20260505194906 | 82 | 191 | 6.0 | 12.0 | 0.00 | 0.00 | 0.00 | 36 | 1008.4 |
| 20260505194405 | 82 | 184 | 6.0 | 17.0 | 0.00 | 0.00 | 0.00 | 36 | 1008.4 |
| 20260505193905 | 82 | 209 | 4.0 | 9.0 | 0.00 | 0.00 | 0.00 | 38 | 1008.5 |
| 20260505192904 | 82 | 215 | 5.0 | 12.0 | 0.00 | 0.00 | 0.00 | 38 | 1008.6 |